Stations météo

réclame
Mon MeteoGroup
Ballypatrick Forest, Grande-Bretagne (3916): Température de l'air & dewpoint: 20.08.2019 01:00:00 - 26.08.2019 01:00:00 (BST)Ballypatrick Forest, Grande-Bretagne (3916): Température de l'air -20cm & Température de l'air -100cm: 20.08.2019 01:00:00 - 26.08.2019 01:00:00 (BST)Ballypatrick Forest, Grande-Bretagne (3916): Vitesse du vent & gusts: 20.08.2019 01:00:00 - 26.08.2019 01:00:00 (BST)Ballypatrick Forest, Grande-Bretagne (3916): Direction du vent: 20.08.2019 01:00:00 - 26.08.2019 01:00:00 (BST)Ballypatrick Forest, Grande-Bretagne (3916): reduced air pressure: 20.08.2019 01:00:00 - 26.08.2019 01:00:00 (BST)Ballypatrick Forest, Grande-Bretagne (3916): visibility: 20.08.2019 01:00:00 - 26.08.2019 01:00:00 (BST)Ballypatrick Forest, Grande-Bretagne (3916): Quantités de précipitations: 20.08.2019 01:00:00 - 26.08.2019 01:00:00 (BST)
Date & Time tt [°C] td [°C] tt -20cm [°C] tt -100cm [°C] ff [km/h] ff [knt] fx [km/h] fx [knt] dd ppp [hPa] vv [km] rr [mm]
26.08.2019 01:00:00 13,1 12,9 - - 5 3 - - SW 1018,9 12 0,0
26.08.2019 00:00:00 13,1 12,9 - - 5 3 - - NNW 1018,9 8 0,0
25.08.2019 23:00:00 13,2 12,9 - - 9 5 - - NNW 1019,2 10 0,0
25.08.2019 22:00:00 13,4 12,9 - - 11 6 - - NNW 1019,0 12 0,0
25.08.2019 21:00:00 13,6 13,2 - - 13 7 - - NNW 1019,1 9 0,0
25.08.2019 20:00:00 13,8 13,4 - - 13 7 - - NNW 1018,9 8 0,0
25.08.2019 19:00:00 14,0 13,5 - - 15 8 - - NNW 1018,6 9 0,0
25.08.2019 18:00:00 14,5 13,5 - - 15 8 - - N 1018,2 12 0,0
25.08.2019 17:00:00 16,4 14,1 - - 11 6 - - N 1017,4 17 0,0
25.08.2019 16:00:00 17,4 14,6 - - 11 6 - - N 1017,5 17 0,0
25.08.2019 15:00:00 17,3 14,1 - - 9 5 - - NNW 1017,4 14 0,0
25.08.2019 14:00:00 18,2 14,8 - - 13 7 - - NNW 1017,2 16 0,0
25.08.2019 13:00:00 23,0 16,9 - - 11 6 - - S 1016,5 29 0,0
25.08.2019 12:00:00 21,9 16,0 - - 16 9 - - SSE 1016,6 21 0,0
25.08.2019 11:00:00 19,9 15,3 - - 15 8 - - SSE 1017,0 20 0,0
25.08.2019 10:00:00 18,1 14,0 15,4 14,2 18 10 - - SE 1016,7 25 0,0
25.08.2019 09:00:00 17,6 13,7 - - 21 11 - - SSE 1016,8 35 0,0
25.08.2019 08:00:00 16,8 12,9 - - 5 3 - - SSW 1016,5 29 0,0
25.08.2019 07:00:00 15,6 12,2 - - 16 9 - - SSE 1016,2 29 0,0
25.08.2019 06:00:00 15,7 11,7 - - 16 9 - - SSE 1015,6 30 0,0
25.08.2019 05:00:00 18,0 12,0 - - 15 8 - - SSE 1015,7 30 0,0
25.08.2019 04:00:00 18,1 12,0 - - 15 8 - - S 1015,8 29 0,0
25.08.2019 03:00:00 17,6 11,9 - - 11 6 - - SSE 1015,8 29 0,0
25.08.2019 02:00:00 17,3 12,4 - - 15 8 - - SSE 1015,7 30 0,0
25.08.2019 01:00:00 16,7 11,8 - - 18 10 - - SSE 1015,9 35 0,0
25.08.2019 00:00:00 18,4 9,9 - - 15 8 - - SSE 1015,8 50 0,0
24.08.2019 23:00:00 18,2 9,8 - - 15 8 - - SSE 1015,8 45 0,0
24.08.2019 22:00:00 18,7 9,5 - - 18 10 - - S 1015,9 45 0,0
24.08.2019 21:00:00 18,3 10,6 - - 18 10 - - SSE 1015,6 45 0,0
24.08.2019 20:00:00 18,1 11,6 - - 18 10 - - SSE 1015,2 45 0,0
24.08.2019 19:00:00 17,4 13,1 - - 15 8 - - SE 1015,3 35 0,0
24.08.2019 18:00:00 16,8 13,6 - - 18 10 - - SSE 1015,5 25 0,0
24.08.2019 17:00:00 18,2 13,7 - - 22 12 - - SE 1015,6 29 0,0
24.08.2019 16:00:00 18,3 13,9 - - 22 12 - - SE 1015,7 25 0,0
24.08.2019 15:00:00 18,4 14,5 - - 16 9 - - SSE 1015,7 25 0,0
24.08.2019 14:00:00 19,5 15,7 - - 16 9 - - SSE 1015,8 22 0,0
24.08.2019 13:00:00 18,7 15,9 - - 16 9 - - SSE 1015,9 20 0,2
24.08.2019 12:00:00 15,5 13,6 - - 9 5 - - S 1016,6 16 0,2
24.08.2019 11:00:00 15,3 13,3 - - 18 10 - - SSE 1016,2 17 0,0
24.08.2019 10:00:00 14,7 12,6 15,2 14,2 9 5 - - SSE 1016,5 28 0,0
24.08.2019 09:00:00 14,1 11,8 - - 9 5 - - S 1016,8 9 0,6
24.08.2019 08:00:00 14,5 11,4 - - 9 5 - - S 1016,3 35 0,0
24.08.2019 07:00:00 13,7 11,6 - - 11 6 - - S 1016,6 25 0,0
24.08.2019 06:00:00 14,4 11,2 - - 16 9 - - SW 1016,4 35 0,0
24.08.2019 05:00:00 14,7 11,5 - - 15 8 - - SSW 1016,6 45 0,0
24.08.2019 04:00:00 14,8 11,7 - - 16 9 - - SW 1016,7 24 0,0
24.08.2019 03:00:00 14,6 12,1 - - 13 7 - - SSW 1016,9 35 0,0
24.08.2019 02:00:00 15,0 12,3 - - 22 12 - - WSW 1016,6 35 0,0
24.08.2019 01:00:00 15,1 12,2 - - 16 9 - - SW 1016,5 35 0,0
24.08.2019 00:00:00 15,7 12,4 - - 21 11 - - SW 1016,5 40 0,0
23.08.2019 23:00:00 16,2 12,5 - - 13 7 - - SSW 1016,5 45 0,0
23.08.2019 22:00:00 16,7 13,9 - - 13 7 - - SSW 1016,6 29 0,0
23.08.2019 21:00:00 14,9 14,2 - - 18 10 - - SSE 1016,4 12 0,0
23.08.2019 20:00:00 16,5 14,3 - - 13 7 - - SSE 1016,7 19 0,0
23.08.2019 19:00:00 18,9 14,1 - - 13 7 - - S 1016,9 50 0,0
23.08.2019 18:00:00 19,4 14,1 - - 11 6 - - WSW 1017,6 45 0,0
23.08.2019 17:00:00 19,8 14,1 - - 13 7 - - SW 1017,9 50 0,0
23.08.2019 16:00:00 19,5 13,5 - - 18 10 - - WSW 1018,4 40 0,0
23.08.2019 15:00:00 19,1 13,5 - - 16 9 - - WSW 1018,9 45 0,0
23.08.2019 14:00:00 18,8 13,5 - - 22 12 - - WSW 1018,9 50 0,0
23.08.2019 13:00:00 18,5 14,1 - - 18 10 - - WSW 1018,9 40 0,0
23.08.2019 12:00:00 17,6 13,0 - - 21 11 46 25 WSW 1018,7 45 0,0
23.08.2019 11:00:00 17,7 13,1 - - 24 13 50 27 WSW 1018,7 40 0,0
23.08.2019 10:00:00 16,6 12,8 14,9 14,2 29 16 46 25 WSW 1018,5 28 0,0
23.08.2019 09:00:00 15,6 11,9 - - 28 15 - - WSW 1018,9 25 0,0
23.08.2019 08:00:00 15,3 12,3 - - 13 7 - - S 1018,9 26 0,0
23.08.2019 07:00:00 14,2 12,2 - - 8 4 - - SW 1018,7 18 0,0
23.08.2019 06:00:00 14,0 12,3 - - 13 7 - - SW 1018,4 17 0,0
23.08.2019 05:00:00 14,4 12,8 - - 9 5 - - SSW 1018,1 19 0,0
23.08.2019 04:00:00 14,4 13,0 - - 13 7 - - SW 1018,0 18 0,0
23.08.2019 03:00:00 14,3 12,9 - - 16 9 54 29 WSW 1017,7 15 0,0
23.08.2019 02:00:00 14,9 13,2 - - 31 17 48 26 WSW 1016,9 18 0,0
23.08.2019 01:00:00 15,2 13,4 - - 28 15 46 25 W 1017,0 16 0,0
23.08.2019 00:00:00 15,7 13,5 - - 29 16 48 26 W 1017,0 20 0,0
22.08.2019 23:00:00 15,8 13,7 - - 28 15 - - W 1016,8 23 0,0
22.08.2019 22:00:00 16,0 13,7 - - 26 14 - - W 1016,5 20 0,0
22.08.2019 21:00:00 16,5 14,1 - - 29 16 - - W 1016,1 20 0,0
22.08.2019 20:00:00 16,7 14,1 - - 28 15 55 30 W 1015,7 17 0,0
22.08.2019 19:00:00 16,6 14,5 - - 35 19 61 33 WNW 1014,8 17 0,0
22.08.2019 18:00:00 16,6 15,3 - - 41 22 59 32 W 1014,2 10 0,0
22.08.2019 17:00:00 17,1 16,2 - - 31 17 48 26 W 1013,5 10 0,4
22.08.2019 16:00:00 16,9 15,7 - - 31 17 54 29 WSW 1013,4 5 0,0
22.08.2019 15:00:00 16,6 15,2 - - 28 15 50 27 W 1013,6 4,7 0,0
22.08.2019 14:00:00 16,5 14,6 - - 31 17 54 29 W 1013,5 26 0,0
22.08.2019 13:00:00 16,5 13,9 - - 31 17 54 29 W 1013,6 20 0,0
22.08.2019 12:00:00 15,2 13,4 - - 26 14 50 27 WSW 1014,0 35 0,0
22.08.2019 11:00:00 14,7 12,7 - - 22 12 - - WSW 1014,0 35 0,0
22.08.2019 10:00:00 14,1 11,8 14,7 14,2 31 17 - - WSW 1014,2 22 0,0
22.08.2019 09:00:00 13,9 11,5 - - 26 14 - - WSW 1014,4 35 0,0
22.08.2019 08:00:00 13,0 11,1 - - 18 10 - - WSW 1014,5 35 0,0
22.08.2019 07:00:00 12,2 10,8 - - 18 10 - - SW 1014,3 24 0,0
22.08.2019 06:00:00 11,9 10,8 - - 18 10 - - WSW 1014,4 25 0,0
22.08.2019 05:00:00 12,0 11,0 - - 21 11 - - SW 1014,5 23 0,0
22.08.2019 04:00:00 12,1 11,3 - - 11 6 - - SW 1014,8 22 0,0
22.08.2019 03:00:00 11,4 10,6 - - 8 4 - - WSW 1015,2 25 0,0
22.08.2019 02:00:00 12,1 11,2 - - 13 7 - - WSW 1015,1 18 0,0
22.08.2019 01:00:00 11,8 10,3 - - 13 7 46 25 WSW 1015,4 30 0,0
22.08.2019 00:00:00 11,1 9,8 - - 9 5 - - WSW 1015,4 18 0,0
21.08.2019 23:00:00 10,6 9,3 - - 9 5 - - SW 1015,7 22 0,0
21.08.2019 22:00:00 11,7 9,7 - - 11 6 - - SW 1015,6 24 0,0
21.08.2019 21:00:00 13,3 12,5 - - 9 5 - - WSW 1015,2 29 0,0
21.08.2019 20:00:00 14,2 13,6 - - 11 6 - - W 1014,6 45 0,0
21.08.2019 19:00:00 14,8 13,4 - - 22 12 - - W 1014,2 35 1,4
21.08.2019 18:00:00 14,8 13,3 - - 31 17 57 31 WSW 1013,9 35 0,2
21.08.2019 17:00:00 14,6 13,1 - - 34 18 54 29 SW 1013,8 7 0,2
21.08.2019 16:00:00 13,9 12,5 - - 26 14 55 30 SW 1014,2 7 1,0
21.08.2019 15:00:00 13,2 11,9 - - 29 16 52 28 SW 1015,0 10 1,4
21.08.2019 14:00:00 13,3 12,0 - - 26 14 48 26 SW 1016,1 9 1,6
21.08.2019 13:00:00 14,1 11,5 - - 26 14 52 28 SW 1017,0 12 0,2
21.08.2019 12:00:00 14,4 10,6 - - 22 12 46 25 SW 1017,1 40 0,0
21.08.2019 11:00:00 14,7 11,1 - - 18 10 - - SW 1017,5 29 0,0
21.08.2019 10:00:00 14,7 11,3 15,0 14,2 24 13 46 25 WSW 1018,3 35 0,0
21.08.2019 09:00:00 13,3 10,7 - - 21 11 - - SW 1019,0 30 0,0
21.08.2019 08:00:00 13,2 10,9 - - 21 11 - - SW 1019,0 30 0,0
21.08.2019 07:00:00 12,4 10,7 - - 13 7 - - SW 1019,6 30 0,0
21.08.2019 06:00:00 11,8 10,6 - - 16 9 - - WSW 1020,0 21 0,0
21.08.2019 05:00:00 11,7 11,0 - - 21 11 - - WSW 1020,0 20 0,0
21.08.2019 04:00:00 12,4 11,1 - - 24 13 - - WSW 1020,2 21 0,0
21.08.2019 03:00:00 12,5 11,0 - - 18 10 - - W 1020,6 18 0,0
21.08.2019 02:00:00 12,0 10,9 - - 11 6 - - W 1020,8 23 0,0
21.08.2019 01:00:00 11,9 11,0 - - 13 7 - - W 1020,9 23 0,0
21.08.2019 00:00:00 12,7 11,7 - - 16 9 - - WSW 1020,8 27 0,0
20.08.2019 23:00:00 13,6 12,4 - - 15 8 - - W 1020,5 30 0,0
20.08.2019 22:00:00 13,6 12,5 - - 16 9 - - WSW 1020,2 45 0,0
20.08.2019 21:00:00 14,1 12,3 - - 18 10 - - WSW 1020,0 45 0,0
20.08.2019 20:00:00 14,7 11,7 - - 15 8 - - SW 1019,7 50 0,0
20.08.2019 19:00:00 15,9 11,2 - - 13 7 - - SW 1019,5 40 0,0
20.08.2019 18:00:00 16,9 11,0 - - 15 8 - - WSW 1019,1 40 0,0
20.08.2019 17:00:00 16,7 11,8 - - 18 10 - - WSW 1019,1 30 0,0
20.08.2019 16:00:00 16,2 10,1 - - 15 8 - - WSW 1019,3 27 0,0
20.08.2019 15:00:00 15,7 9,7 - - 8 4 - - SSE 1019,4 28 0,0
20.08.2019 14:00:00 16,5 9,0 - - 8 4 - - WNW 1019,3 35 0,0
20.08.2019 13:00:00 16,3 7,2 - - 16 9 - - WNW 1019,1 29 0,0
20.08.2019 12:00:00 15,3 9,4 - - 18 10 - - WNW 1019,0 21 0,0
20.08.2019 11:00:00 14,1 9,6 - - 18 10 - - WNW 1018,8 25 0,0
20.08.2019 10:00:00 13,3 9,6 14,7 14,4 22 12 - - WNW 1018,5 29 0,0
20.08.2019 09:00:00 11,6 10,2 - - 15 8 - - W 1018,1 20 0,0
20.08.2019 08:00:00 10,1 9,0 - - 16 9 - - W 1017,6 21 0,0
20.08.2019 07:00:00 9,5 8,7 - - 18 10 - - W 1017,1 17 0,0
20.08.2019 06:00:00 10,5 9,2 - - 24 13 - - W 1016,5 22 0,0
20.08.2019 05:00:00 10,0 9,1 - - 18 10 - - W 1016,2 20 0,0
20.08.2019 04:00:00 10,1 9,7 - - 18 10 - - W 1015,6 15 0,4
20.08.2019 03:00:00 10,2 9,9 - - 18 10 - - W 1015,3 12 0,6
20.08.2019 02:00:00 10,7 10,2 - - 22 12 - - WNW 1014,9 5 0,4
20.08.2019 01:00:00 10,7 9,9 - - 24 13 - - WNW 1014,6 14 0,4

tt = Température de l'air
td = dewpoint
tt -20cm = Température de l'air -20cm
tt -100cm = Température de l'air -100cm
ff = Vitesse du vent
fx = gusts
dd = Direction du vent
ppp = reduced air pressure
vv = visibility
rr = Quantités de précipitations

stations d'obs. à proximité